Weather History for Sylvania, GA

Change the Weather History Date:

Sunday, January 20, 2013

  Actual Average (KSAV) Record (KSAV)
Temperature  
Mean Temperature 54 °F 50 °F  
Max Temperature 69 °F 60 °F 77 °F (1951)
Min Temperature 38 °F 39 °F 14 °F (1985)
Degree Days  
Heating Degree Days 12 16  
Month to date heating degree days 320  
Since 1 July heating degree days 1010  
Cooling Degree Days 0 0  
Month to date cooling degree days 0  
Year to date cooling degree days 0  
Growing Degree Days 4 (Base 50)    
Moisture  
Dew Point 39 °F    
Average Humidity 72    
Maximum Humidity 100    
Minimum Humidity 24    
Precipitation  
Precipitation 0.00 in 0.13 in 1.90 in (1889)
Month to date precipitation 2.31  
Year to date precipitation 2.31  
Sea Level Pressure  
Sea Level Pressure 30.17 in    
Wind  
Wind Speed 2 mph (WNW)    
Max Wind Speed 15 mph    
Max Gust Speed 24 mph    
Visibility 9 miles    
Events      
T = Trace of Precipitation, MM = Missing Value Source: NWS Daily Summary

Daily Weather History Graph

Daily Weather History Graph

Search for Another Location

Airport:

Trip Planner

Search our weather history database for the weather conditions in past years. The results will help you decide how hot, cold, wet, or windy it might be!

Date:

Astronomy

Jan. 20, 2013 Rise Set
Actual Time 7:27 AM EST 5:48 PM EST
Civil Twilight 7:00 AM EST 6:14 PM EST
Nautical Twilight 6:30 AM EST 6:44 PM EST
Astronomical Twilight 6:01 AM EST 7:14 PM EST
Moon 12:47 PM EST (1/20) 2:00 AM EST (1/20)
Length of Visible Light 11h 13m
Length of Day
10h 21m
Waxing Gibbous, 66% of the Moon is Illuminated
Jan 20
Waxing Gibbous
Jan 26
Full
Feb 3
Last Quarter
Feb 10
New
Feb 17
First Quarter

Hourly Weather History & Observations

Time (EST) Temp. Dew Point Humidity Pressure Visibility Wind Dir Wind Speed Gust Speed Precip Events Conditions
12:15 AM 43.0 °F 43.0 °F 100% 30.24 in 10.0 mi Calm Calm - N/A   Clear
12:35 AM 41.9 °F 41.9 °F 100% 30.24 in 7.0 mi Calm Calm - N/A   Clear
12:55 AM 41.7 °F 41.7 °F 100% 30.24 in 10.0 mi Calm Calm - N/A   Clear
1:15 AM 41.4 °F 41.4 °F 100% 30.23 in 10.0 mi Calm Calm - N/A   Clear
1:35 AM 41.0 °F 41.0 °F 100% 30.23 in 7.0 mi Calm Calm - N/A   Clear
1:55 AM 41.2 °F 41.2 °F 100% 30.23 in 10.0 mi Calm Calm - N/A   Clear
2:15 AM 42.3 °F 42.3 °F 100% 30.22 in 10.0 mi Calm Calm - N/A   Clear
2:35 AM 42.3 °F 42.3 °F 100% 30.22 in 7.0 mi Calm Calm - N/A   Clear
2:55 AM 41.7 °F 41.7 °F 100% 30.22 in 7.0 mi Calm Calm - N/A   Clear
3:15 AM 41.2 °F 41.2 °F 100% 30.21 in 10.0 mi Calm Calm - N/A   Clear
3:35 AM 39.7 °F 39.7 °F 100% 30.21 in 5.0 mi Calm Calm - N/A   Clear
3:55 AM 40.3 °F 40.3 °F 100% 30.20 in 7.0 mi Calm Calm - N/A   Clear
4:15 AM 40.6 °F 40.6 °F 100% 30.21 in 7.0 mi Calm Calm - N/A   Clear
4:35 AM 40.3 °F 40.3 °F 100% 30.20 in 7.0 mi Calm Calm - N/A   Clear
4:55 AM 38.5 °F 38.5 °F 100% 30.20 in 10.0 mi Calm Calm - N/A   Clear
5:15 AM 39.2 °F 39.2 °F 100% 30.20 in 10.0 mi Calm Calm - N/A   Clear
5:35 AM 38.8 °F 38.8 °F 100% 30.20 in 7.0 mi Calm Calm - N/A   Clear
5:55 AM 39.2 °F 39.2 °F 100% 30.20 in 7.0 mi Calm Calm - N/A   Clear
6:15 AM 39.4 °F 39.4 °F 100% 30.21 in 7.0 mi Calm Calm - N/A   Clear
6:35 AM 38.8 °F 38.8 °F 100% 30.21 in 5.0 mi Calm Calm - N/A   Clear
6:55 AM 39.2 °F 39.2 °F 100% 30.22 in 4.0 mi Calm Calm - N/A   Clear
7:15 AM 38.3 °F 38.3 °F 100% 30.22 in 5.0 mi Calm Calm - N/A   Clear
7:35 AM 38.5 °F 38.5 °F 100% 30.23 in 4.0 mi Calm Calm - N/A   Clear
7:55 AM 41.0 °F 41.0 °F 100% 30.23 in 2.5 mi Calm Calm - N/A   Clear
8:15 AM 41.0 °F 41.0 °F 100% 30.23 in 1.8 mi Calm Calm - N/A   Mist
8:35 AM 42.4 °F 42.4 °F 100% 30.23 in 3.0 mi Calm Calm - N/A   Clear
8:55 AM 45.0 °F 45.0 °F 100% 30.23 in 7.0 mi Calm Calm - N/A   Clear
9:15 AM 48.2 °F 47.1 °F 96% 30.23 in 10.0 mi Calm Calm - N/A   Clear
9:35 AM 52.5 °F 46.9 °F 81% 30.23 in 10.0 mi WNW 3.5 mph - N/A   Clear
9:55 AM 56.8 °F 45.1 °F 65% 30.23 in 10.0 mi WNW 5.8 mph - N/A   Clear
10:15 AM 59.0 °F 43.7 °F 57% 30.23 in 10.0 mi NW 10.4 mph - N/A   Clear
10:35 AM 59.9 °F 42.8 °F 53% 30.23 in 10.0 mi NW 12.7 mph 20.7 mph N/A   Clear
10:55 AM 60.3 °F 42.4 °F 52% 30.22 in 10.0 mi NW 12.7 mph 24.2 mph N/A   Clear
11:15 AM 61.5 °F 43.0 °F 51% 30.22 in 10.0 mi WNW 12.7 mph 17.3 mph N/A   Clear
11:35 AM 61.9 °F 43.0 °F 50% 30.21 in 10.0 mi West 11.5 mph - N/A   Clear
11:55 AM 63.0 °F 43.5 °F 49% 30.19 in 10.0 mi WNW 9.2 mph - N/A   Clear
12:15 PM 64.0 °F 44.2 °F 49% 30.17 in 10.0 mi WNW 15.0 mph 18.4 mph N/A   Clear
12:35 PM 65.3 °F 43.2 °F 45% 30.16 in 10.0 mi WNW 10.4 mph - N/A   Clear
12:55 PM 65.8 °F 40.8 °F 40% 30.14 in 10.0 mi West 8.1 mph - N/A   Clear
1:15 PM 66.6 °F 38.5 °F 36% 30.13 in 10.0 mi West 8.1 mph - N/A   Clear
1:35 PM 66.7 °F 37.4 °F 34% 30.11 in 10.0 mi WNW 5.8 mph - N/A   Clear
1:55 PM 68.0 °F 36.7 °F 32% 30.10 in 10.0 mi West 9.2 mph - N/A   Clear
2:15 PM 68.5 °F 34.9 °F 29% 30.10 in 10.0 mi WNW 6.9 mph - N/A   Clear
2:55 PM 69.3 °F 33.1 °F 26% 30.09 in 10.0 mi WNW 9.2 mph - N/A   Clear
3:15 PM 69.6 °F 33.3 °F 26% 30.09 in 10.0 mi NW 12.7 mph 17.3 mph N/A   Clear
3:35 PM 69.3 °F 32.4 °F 26% 30.09 in 10.0 mi NW 6.9 mph - N/A   Clear
3:55 PM 69.6 °F 31.5 °F 24% 30.09 in 10.0 mi WNW 8.1 mph - N/A   Clear
4:15 PM 69.1 °F 32.0 °F 25% 30.09 in 10.0 mi WNW 5.8 mph - N/A   Clear
4:35 PM 68.9 °F 31.6 °F 25% 30.09 in 10.0 mi NW 8.1 mph - N/A   Clear
4:55 PM 68.2 °F 32.0 °F 26% 30.09 in 10.0 mi WNW 5.8 mph - N/A   Clear
5:15 PM 66.9 °F 32.0 °F 27% 30.09 in 10.0 mi WNW 4.6 mph - N/A   Clear
5:35 PM 63.9 °F 32.9 °F 31% 30.10 in 10.0 mi WNW 3.5 mph - N/A   Clear
5:55 PM 62.6 °F 33.4 °F 34% 30.10 in 10.0 mi Calm Calm - N/A   Clear
6:15 PM 58.1 °F 33.4 °F 39% 30.10 in 10.0 mi Calm Calm - N/A   Clear
6:35 PM 55.6 °F 33.3 °F 43% 30.10 in 10.0 mi Calm Calm - N/A   Clear
6:55 PM 52.2 °F 33.3 °F 49% 30.11 in 10.0 mi Calm Calm - N/A   Clear
7:15 PM 49.3 °F 36.9 °F 62% 30.11 in 10.0 mi Calm Calm - N/A   Clear
7:35 PM 48.4 °F 36.7 °F 64% 30.11 in 10.0 mi Calm Calm - N/A   Clear
7:55 PM 47.5 °F 37.4 °F 68% 30.11 in 10.0 mi Calm Calm - N/A   Clear
8:15 PM 46.4 °F 36.9 °F 69% 30.11 in 10.0 mi Calm Calm - N/A   Clear
8:35 PM 45.7 °F 36.5 °F 70% 30.11 in 10.0 mi Calm Calm - N/A   Clear
8:55 PM 45.0 °F 36.7 °F 73% 30.12 in 10.0 mi Calm Calm - N/A   Clear
9:15 PM 43.2 °F 36.9 °F 78% 30.12 in 10.0 mi Calm Calm - N/A   Clear
9:35 PM 43.7 °F 37.8 °F 80% 30.13 in 10.0 mi Calm Calm - N/A   Clear
9:55 PM 42.1 °F 36.3 °F 80% 30.13 in 10.0 mi Calm Calm - N/A   Clear
10:15 PM 41.5 °F 37.2 °F 85% 30.13 in 10.0 mi Calm Calm - N/A   Clear
10:35 PM 41.7 °F 37.9 °F 86% 30.13 in 10.0 mi Calm Calm - N/A   Clear
10:55 PM 41.5 °F 37.6 °F 86% 30.13 in 10.0 mi Calm Calm - N/A   Clear
11:15 PM 40.8 °F 37.0 °F 86% 30.13 in 10.0 mi Calm Calm - N/A   Clear
11:35 PM 40.1 °F 37.2 °F 89% 30.12 in 10.0 mi Calm Calm - N/A   Clear
11:55 PM 39.2 °F 36.7 °F 91% 30.12 in 10.0 mi Calm Calm - N/A   Clear